GPS BIIF-10 (PRN 08)

Last updated on Jan. 21, 2020, 4:35 a.m. UTC

1 40730U 15033A   20020.38825690 -.00000085  00000-0  00000-0 0  9995
2 40730  55.5848   1.9221 0051123 345.9028  13.9573  2.00570738 33083
UTC
Height (km)
Latitude
Longitude
Inclination
Orbital Period
UTC large
Height (km)
Speed (km/s)
/
Latitude / Longitude
Inclination (degrees)
Orbital Period (minutes)
Azimuth
Elevation
Range (km)
Doppler Factor
iOS Compass Heading
iOS Angle